User: anonymous   Login
Location: Unspecified
(0.0000°N, 0.0000°E)
Time: 04:21:19
(UTC+00:00)
Language:

GSAT 7 - Orbit

View from above orbital plane
View from above orbital plane
View from above satellite
View from above satellite

Ground track
Ground track

The orbit data is extracted from the following two-line orbital elements,

1 39234U 13044B   18054.36878594 -.00000088 +00000-0 +00000-0 0  9998
2 39234 000.0636 270.3906 0005340 038.2547 051.2862 01.00271245014906
Epoch (UTC): 23 February 2018 08:51:03
Eccentricity: 0.0005340
inclination: 0.0636°
perigee height: 35764 km
apogee height: 35809 km
right ascension of ascending node: 270.3906°
argument of perigee: 38.2547°
revolutions per day: 1.00271245
mean anomaly at epoch: 51.2862°
orbit number at epoch: 1490

The dashed part of the orbit path shows where the satellite is in the earth's shadow,  

DLR